Location: Newark
(45.2500°N, 7.5833°E)
Time: 11:17:20
(UTC+00:00)

A-11 Canister half - Pass Details

Date: 02 February 2020
Orbit: 1524 x 1684 km, 47.3° (Epoch: 22 February)

Event Time Altitude Azimuth Distance (km) Brightness Sun altitude
Rises 21:39:18 0° 293° (WNW) 4,730 12.2 -51.5°
Reaches altitude 10° 21:42:36 10° 286° (WNW) 3,763 11.4 -52.0°
Enters shadow 21:46:17 24° 270° (W) 2,841 10.5 -52.5°
